| time (UTC) | temp F | wind direction | speed knots | gust knots | rain 1hr in | rain 24hr in | rain mn in | humidity % | barometer mb |
| 20260509120036 | 53 | 166 | 0.0 | 0.9 | 0.00 | 0.07 | 0.00 | 90 | 1009.1 |
| 20260509114530 | 53 | 174 | 0.9 | 2.6 | 0.00 | 0.07 | 0.00 | 89 | 1008.9 |
| 20260509113030 | 53 | 227 | 1.7 | 4.3 | 0.00 | 0.07 | 0.00 | 91 | 1008.7 |
| 20260509111529 | 52 | 247 | 0.0 | 2.6 | 0.00 | 0.07 | 0.00 | 91 | 1008.6 |
| 20260509110027 | 53 | 177 | 0.0 | 0.9 | 0.00 | 0.07 | 0.00 | 90 | 1008.4 |
| 20260509104527 | 53 | 191 | 0.0 | 2.6 | 0.00 | 0.07 | 0.00 | 91 | 1008.4 |
| 20260509103027 | 53 | 311 | 0.0 | 0.0 | 0.00 | 0.07 | 0.00 | 91 | 1008.6 |
| 20260509101527 | 53 | 33 | 0.0 | 1.7 | 0.00 | 0.07 | 0.00 | 90 | 1008.6 |
| 20260509100024 | 53 | 33 | 0.0 | 2.6 | 0.00 | 0.07 | 0.00 | 90 | 1008.6 |
| 20260509094523 | 54 | 52 | 0.9 | 3.5 | 0.00 | 0.07 | 0.00 | 89 | 1008.6 |
| 20260509093022 | 55 | 89 | 0.0 | 2.6 | 0.00 | 0.07 | 0.00 | 89 | 1008.5 |
| 20260509091521 | 54 | 122 | 0.0 | 3.5 | 0.00 | 0.07 | 0.00 | 89 | 1008.5 |
| 20260509090020 | 55 | 41 | 0.0 | 1.7 | 0.00 | 0.07 | 0.00 | 88 | 1008.3 |
| 20260509084524 | 56 | 245 | 0.0 | 3.5 | 0.00 | 0.07 | 0.00 | 87 | 1008.3 |
| 20260509083018 | 56 | 167 | 1.7 | 7.0 | 0.00 | 0.07 | 0.00 | 88 | 1008.3 |
| 20260509081517 | 56 | 200 | 0.0 | 5.2 | 0.00 | 0.07 | 0.00 | 88 | 1008.3 |
| 20260509080016 | 56 | 141 | 0.9 | 6.1 | 0.00 | 0.07 | 0.00 | 89 | 1008.3 |
| 20260509074514 | 56 | 178 | 0.9 | 5.2 | 0.00 | 0.07 | 0.00 | 90 | 1008.4 |
| 20260509073013 | 55 | 122 | 0.0 | 3.5 | 0.00 | 0.07 | 0.00 | 90 | 1008.5 |
| 20260509071513 | 55 | 152 | 1.7 | 4.3 | 0.00 | 0.07 | 0.00 | 90 | 1008.4 |
| 20260509070014 | 56 | 137 | 0.9 | 3.5 | 0.00 | 0.07 | 0.00 | 90 | 1008.6 |
| 20260509064511 | 56 | 139 | 1.7 | 6.1 | 0.00 | 0.07 | 0.00 | 90 | 1008.7 |
| 20260509063009 | 56 | 157 | 1.7 | 6.1 | 0.00 | 0.07 | 0.00 | 90 | 1008.9 |
| 20260509061509 | 56 | 172 | 2.6 | 5.2 | 0.00 | 0.07 | 0.00 | 90 | 1009.0 |
| 20260509060006 | 57 | 139 | 1.7 | 6.1 | 0.00 | 0.07 | 0.00 | 91 | 1009.0 |
| 20260509054505 | 56 | 185 | 1.7 | 7.0 | 0.00 | 0.07 | 0.00 | 93 | 1009.0 |
| 20260509053002 | 55 | 178 | 2.6 | 4.3 | 0.00 | 0.07 | 0.00 | 92 | 1009.1 |
| 20260509051605 | 55 | 153 | 0.0 | 0.9 | 0.00 | 0.07 | 0.00 | 92 | 1009.1 |
| 20260509050057 | 55 | 152 | 0.0 | 1.7 | 0.00 | 0.07 | 0.00 | 92 | 1009.1 |
| 20260509044555 | 55 | 153 | 0.0 | 0.9 | 0.00 | 0.07 | 0.07 | 92 | 1009.1 |
| 20260509043101 | 55 | 172 | 0.0 | 0.0 | 0.00 | 0.07 | 0.07 | 92 | 1009.0 |
| 20260509041554 | 55 | 220 | 0.0 | 0.0 | 0.00 | 0.07 | 0.07 | 91 | 1009.1 |
| 20260509040053 | 56 | 220 | 0.0 | 0.0 | 0.00 | 0.07 | 0.07 | 91 | 1009.2 |
| 20260509034554 | 55 | 222 | 0.0 | 0.0 | 0.00 | 0.07 | 0.07 | 91 | 1009.2 |
| 20260509033052 | 56 | 222 | 0.0 | 0.0 | 0.00 | 0.07 | 0.07 | 90 | 1009.2 |
| 20260509031615 | 56 | 222 | 0.0 | 0.0 | 0.00 | 0.07 | 0.07 | 90 | 1009.2 |
| 20260509030051 | 57 | 222 | 0.0 | 0.0 | 0.00 | 0.07 | 0.07 | 90 | 1009.1 |
| 20260509024550 | 57 | 222 | 0.0 | 0.9 | 0.00 | 0.07 | 0.07 | 89 | 1008.8 |
| 20260509023054 | 57 | 262 | 0.0 | 1.7 | 0.00 | 0.07 | 0.07 | 88 | 1008.7 |
| 20260509021550 | 58 | 262 | 0.0 | 0.9 | 0.00 | 0.07 | 0.07 | 87 | 1008.5 |
| 20260509020049 | 59 | 262 | 0.9 | 1.7 | 0.00 | 0.07 | 0.07 | 85 | 1008.4 |
| 20260509014549 | 60 | 262 | 0.0 | 0.9 | 0.00 | 0.07 | 0.07 | 84 | 1008.3 |
| 20260509013049 | 62 | 262 | 0.0 | 0.0 | 0.00 | 0.07 | 0.07 | 81 | 1008.1 |
| 20260509011549 | 62 | 262 | 0.0 | 0.0 | 0.00 | 0.07 | 0.07 | 79 | 1008.0 |
| 20260509010047 | 63 | 262 | 0.0 | 1.7 | 0.00 | 0.07 | 0.07 | 78 | 1008.1 |
| 20260509004551 | 64 | 278 | 0.0 | 3.5 | 0.00 | 0.07 | 0.07 | 77 | 1008.0 |
| 20260509003047 | 64 | 272 | 1.7 | 5.2 | 0.00 | 0.07 | 0.07 | 75 | 1007.8 |
| 20260509001546 | 64 | 274 | 0.0 | 6.1 | 0.00 | 0.07 | 0.07 | 75 | 1007.6 |
| 20260509000101 | 65 | 273 | 0.9 | 4.3 | 0.00 | 0.07 | 0.07 | 75 | 1007.6 |
| 20260508234545 | 64 | 240 | 2.6 | 3.5 | 0.00 | 0.07 | 0.07 | 76 | 1007.3 |
| 20260508233043 | 64 | 248 | 0.9 | 4.3 | 0.00 | 0.07 | 0.07 | 77 | 1007.6 |
| 20260508231548 | 64 | 247 | 3.5 | 7.0 | 0.00 | 0.07 | 0.07 | 78 | 1008.0 |
| 20260508230040 | 63 | 286 | 0.9 | 4.3 | 0.00 | 0.07 | 0.07 | 82 | 1007.9 |
| 20260508224537 | 62 | 258 | 0.9 | 2.6 | 0.00 | 0.07 | 0.07 | 84 | 1007.7 |
| 20260508223038 | 61 | 155 | 0.0 | 4.3 | 0.00 | 0.07 | 0.07 | 86 | 1007.7 |
| 20260508221538 | 60 | 67 | 0.0 | 4.3 | 0.00 | 0.07 | 0.07 | 88 | 1007.7 |
| 20260508220038 | 59 | 136 | 0.9 | 6.1 | 0.01 | 0.07 | 0.07 | 89 | 1007.7 |
| 20260508214534 | 58 | 95 | 5.2 | 11.3 | 0.03 | 0.07 | 0.07 | 89 | 1007.2 |
| 20260508213043 | 58 | 108 | 1.7 | 6.1 | 0.05 | 0.07 | 0.07 | 88 | 1008.3 |
| 20260508211533 | 59 | 120 | 0.9 | 2.6 | 0.05 | 0.07 | 0.07 | 88 | 1008.7 |
| 20260508210027 | 59 | 321 | 0.0 | 0.9 | 0.05 | 0.06 | 0.06 | 87 | 1009.2 |
| 20260508204525 | 59 | 326 | 0.0 | 0.9 | 0.03 | 0.03 | 0.03 | 86 | 1009.5 |
| 20260508203029 | 59 | 353 | 1.7 | 5.2 | 0.02 | 0.02 | 0.02 | 86 | 1009.4 |
| 20260508201524 | 60 | 326 | 3.5 | 5.2 | 0.02 | 0.02 | 0.02 | 84 | 1009.4 |
| 20260508200029 | 60 | 356 | 0.9 | 2.6 | 0.01 | 0.01 | 0.01 | 79 | 1009.8 |
| 20260508194520 | 61 | 357 | 0.9 | 2.6 | 0.00 | 0.00 | 0.00 | 78 | 1009.3 |
| 20260508193019 | 61 | 331 | 0.0 | 1.7 | 0.00 | 0.00 | 0.00 | 77 | 1009.7 |
| 20260508191525 | 62 | 324 | 1.7 | 4.3 | 0.00 | 0.00 | 0.00 | 76 | 1009.0 |
| 20260508190018 | 62 | 176 | 0.0 | 2.6 | 0.00 | 0.00 | 0.00 | 74 | 1009.3 |
| 20260508184519 | 62 | 29 | 0.0 | 3.5 | 0.00 | 0.00 | 0.00 | 73 | 1009.0 |
| 20260508183016 | 62 | 81 | 0.9 | 2.6 | 0.00 | 0.00 | 0.00 | 70 | 1009.0 |
| 20260508181539 | 62 | 145 | 0.9 | 6.1 | 0.00 | 0.00 | 0.00 | 69 | 1009.5 |
| 20260508180016 | 62 | 195 | 1.7 | 4.3 | 0.00 | 0.00 | 0.00 | 70 | 1009.5 |
| 20260508174518 | 61 | 143 | 0.0 | 3.5 | 0.00 | 0.00 | 0.00 | 72 | 1009.2 |
| 20260508173014 | 61 | 355 | 1.7 | 6.1 | 0.00 | 0.00 | 0.00 | 72 | 1009.0 |
| 20260508171513 | 61 | 330 | 0.9 | 5.2 | 0.00 | 0.00 | 0.00 | 70 | 1009.3 |
| 20260508170014 | 62 | 335 | 3.5 | 6.1 | 0.00 | 0.00 | 0.00 | 68 | 1009.5 |
| 20260508164520 | 62 | 329 | 1.7 | 5.2 | 0.00 | 0.00 | 0.00 | 68 | 1010.2 |
| 20260508163011 | 62 | 249 | 1.7 | 7.0 | 0.00 | 0.00 | 0.00 | 68 | 1011.0 |
| 20260508161510 | 61 | 281 | 0.0 | 5.2 | 0.00 | 0.00 | 0.00 | 68 | 1010.5 |
| 20260508160013 | 61 | 242 | 0.9 | 6.1 | 0.00 | 0.00 | 0.00 | 68 | 1010.0 |
| 20260508154511 | 60 | 225 | 3.5 | 7.0 | 0.00 | 0.00 | 0.00 | 68 | 1009.8 |
| 20260508153007 | 60 | 162 | 3.5 | 7.0 | 0.00 | 0.00 | 0.00 | 68 | 1009.8 |
| 20260508151506 | 60 | 143 | 2.6 | 6.1 | 0.00 | 0.00 | 0.00 | 69 | 1009.8 |
| 20260508150006 | 60 | 207 | 3.5 | 7.0 | 0.00 | 0.00 | 0.00 | 68 | 1010.0 |
| 20260508144504 | 60 | 360 | 0.0 | 11.3 | 0.00 | 0.00 | 0.00 | 66 | 1009.9 |
| 20260508143004 | 60 | 174 | 5.2 | 10.4 | 0.00 | 0.00 | 0.00 | 66 | 1009.7 |
| 20260508141509 | 60 | 235 | 5.2 | 11.3 | 0.00 | 0.00 | 0.00 | 67 | 1009.7 |
| 20260508140003 | 59 | 215 | 3.5 | 7.0 | 0.00 | 0.00 | 0.00 | 69 | 1010.1 |
| 20260508134502 | 58 | 197 | 0.9 | 4.3 | 0.00 | 0.00 | 0.00 | 72 | 1010.1 |
| 20260508133001 | 57 | 109 | 0.0 | 1.7 | 0.00 | 0.00 | 0.00 | 72 | 1010.0 |
| 20260508131502 | 56 | 159 | 1.7 | 4.3 | 0.00 | 0.00 | 0.00 | 74 | 1009.8 |
| 20260508130100 | 56 | 177 | 1.7 | 6.1 | 0.00 | 0.00 | 0.00 | 77 | 1009.6 |
| 20260508124559 | 56 | 104 | 4.3 | 7.0 | 0.00 | 0.00 | 0.00 | 75 | 1009.3 |
| 20260508123059 | 56 | 48 | 0.0 | 0.0 | 0.00 | 0.00 | 0.00 | 75 | 1010.1 |
| 20260508121610 | 56 | 48 | 0.0 | 1.7 | 0.00 | 0.00 | 0.00 | 73 | 1009.6 |